Weather History for KENL - April, 2014

Change the Weather History Date:

Wednesday, April 2, 2014

  Actual Average (KSLO) Record (KSLO)
Temperature  
Mean Temperature 51 °F -  
Max Temperature 57 °F 61 °F 86 °F (2012)
Min Temperature 45 °F 40 °F 21 °F (1961)
Degree Days  
Heating Degree Days 14    
Growing Degree Days 1 (Base 50)    
Moisture  
Dew Point 45 °F    
Average Humidity 81    
Maximum Humidity 91    
Minimum Humidity 72    
Precipitation  
Precipitation 0.29 in - - ()
Sea Level Pressure  
Sea Level Pressure 29.98 in    
Wind  
Wind Speed 8 mph (ENE)    
Max Wind Speed 16 mph    
Max Gust Speed 23 mph    
Visibility 10 miles    
Events Rain , Thunderstorm    
Averages and records for this station are not official NWS values.
T = Trace of Precipitation, MM = Missing Value Source: NWS Daily Summary

Daily Weather History Graph

Daily Weather History Graph

Search for Another Location

Airport or City:

Trip Planner

Search our weather history database for the weather conditions in past years. The results will help you decide how hot, cold, wet, or windy it might be!

Date:

Astronomy

Apr. 02, 2014 Rise Set
Actual Time 6:39 AM CDT 7:20 PM CDT
Civil Twilight 6:12 AM CDT 7:47 PM CDT
Nautical Twilight 5:41 AM CDT 8:19 PM CDT
Astronomical Twilight 5:08 AM CDT 8:51 PM CDT
Moon 8:26 AM CDT (4/2) 10:41 PM CDT (4/2)
Length of Visible Light 13h 34m
Length of Day
12h 41m
Waxing Crescent, 10% of the Moon is Illuminated
Apr 2
Waxing Crescent
Apr 7
First Quarter
Apr 15
Full
Apr 22
Last Quarter
Apr 29
New

Hourly Weather History & Observations

Time (CDT) Temp. Windchill Dew Point Humidity Pressure Visibility Wind Dir Wind Speed Gust Speed Precip Events Conditions
12:15 AM 49.8 °F - 42.1 °F 75% 30.05 in 10.0 mi Calm Calm - N/A   Overcast
12:35 AM 50.0 °F - 41.7 °F 73% 30.04 in 10.0 mi NE 8.1 mph - N/A   Overcast
12:55 AM 49.6 °F - 40.8 °F 72% 30.05 in 10.0 mi NE 5.8 mph - N/A   Overcast
1:15 AM 49.3 °F - 40.8 °F 73% 30.05 in 10.0 mi NE 6.9 mph - N/A   Overcast
1:35 AM 49.1 °F - 41.0 °F 74% 30.06 in 10.0 mi NE 5.8 mph - N/A   Overcast
1:55 AM 48.6 °F - 41.4 °F 76% 30.06 in 10.0 mi NNE 4.6 mph - N/A   Overcast
2:15 AM 48.7 °F - 41.5 °F 76% 30.06 in 10.0 mi NE 5.8 mph - N/A   Overcast
2:35 AM 48.6 °F - 40.8 °F 75% 30.05 in 10.0 mi ENE 9.2 mph - N/A   Overcast
2:55 AM 48.2 °F - 40.3 °F 74% 30.04 in 10.0 mi ENE 12.7 mph 17.3 mph N/A   Overcast
3:15 AM 47.7 °F - 40.1 °F 75% 30.04 in 10.0 mi ENE 12.7 mph 17.3 mph N/A   Overcast
3:35 AM 47.8 °F - 40.1 °F 75% 30.04 in 10.0 mi NE 6.9 mph - N/A   Overcast
3:55 AM 47.5 °F - 40.3 °F 76% 30.03 in 10.0 mi ENE 9.2 mph - N/A   Overcast
4:15 AM 47.5 °F - 40.3 °F 76% 30.02 in 10.0 mi East 11.5 mph - N/A   Overcast
4:35 AM 47.5 °F - 40.3 °F 76% 30.03 in 10.0 mi NE 9.2 mph - N/A   Overcast
4:55 AM 47.5 °F - 40.3 °F 76% 30.04 in 10.0 mi NE 9.2 mph - N/A   Overcast
5:15 AM 47.7 °F - 39.7 °F 74% 30.06 in 10.0 mi NNE 9.2 mph - N/A Thunderstorm Overcast
5:35 AM 46.9 °F - 40.3 °F 78% 30.09 in 10.0 mi North 9.2 mph - 0.01 in Rain , Thunderstorm Thunderstorms and Rain
5:55 AM 45.3 °F 40.6 °F 42.1 °F 88% 30.10 in 5.0 mi NNE 9.2 mph - 0.15 in Rain , Thunderstorm Light Thunderstorms and Rain
6:15 AM 45.0 °F 40.6 °F 41.9 °F 89% 30.10 in 10.0 mi NE 8.1 mph - 0.01 in Thunderstorm Overcast
7:35 AM 45.9 °F 40.0 °F 42.3 °F 87% 30.05 in 10.0 mi East 12.7 mph 19.6 mph 0.06 in   Overcast
7:55 AM 46.6 °F - 42.4 °F 85% 30.04 in 10.0 mi East 15.0 mph 20.7 mph 0.06 in   Overcast
8:15 AM 47.7 °F - 42.6 °F 83% 30.02 in 10.0 mi East 13.8 mph 19.6 mph N/A   Overcast
8:35 AM 49.1 °F - 43.0 °F 79% 30.01 in 10.0 mi East 12.7 mph 21.9 mph N/A   Overcast
8:55 AM 49.5 °F - 42.8 °F 78% 30.01 in 10.0 mi East 13.8 mph 21.9 mph N/A   Overcast
9:15 AM 49.8 °F - 43.0 °F 77% 30.02 in 10.0 mi East 15.0 mph 19.6 mph N/A   Overcast
9:35 AM 50.2 °F - 43.3 °F 77% 30.02 in 10.0 mi East 10.4 mph - N/A   Overcast
9:55 AM 50.5 °F - 43.7 °F 77% 30.02 in 10.0 mi East 10.4 mph 16.1 mph N/A   Overcast
10:15 AM 51.4 °F - 44.1 °F 76% 30.00 in 10.0 mi East 10.4 mph 20.7 mph N/A   Overcast
10:35 AM 51.8 °F - 44.6 °F 76% 30.00 in 10.0 mi East 15.0 mph 20.7 mph N/A   Overcast
10:55 AM 52.0 °F - 44.2 °F 75% 30.02 in 10.0 mi East 10.4 mph - N/A   Overcast
11:35 AM 51.4 °F - 44.6 °F 77% 29.98 in 10.0 mi East 15.0 mph 19.6 mph N/A   Overcast
11:55 AM 51.1 °F - 45.0 °F 80% 29.96 in 10.0 mi East 12.7 mph 17.3 mph N/A Rain , Thunderstorm Rain
12:15 PM 50.5 °F - 45.5 °F 83% 30.06 in 7.0 mi North 4.6 mph - 0.06 in Rain , Thunderstorm Heavy Thunderstorms and Rain
12:35 PM 49.6 °F - 46.0 °F 87% 30.03 in 10.0 mi WNW 15.0 mph 19.6 mph N/A Rain , Thunderstorm Light Thunderstorms and Rain
12:55 PM 49.3 °F - 46.0 °F 89% 30.01 in 7.0 mi ENE 10.4 mph - 0.02 in Rain , Thunderstorm Light Thunderstorms and Rain
1:15 PM 49.1 °F - 46.2 °F 90% 30.01 in 10.0 mi ENE 8.1 mph - 0.01 in Rain , Thunderstorm Light Thunderstorms and Rain
1:35 PM 49.1 °F - 46.4 °F 90% 30.02 in 10.0 mi NNE 4.6 mph - 0.01 in Rain , Thunderstorm Light Thunderstorms and Rain
1:55 PM 48.7 °F - 46.2 °F 91% 30.01 in 10.0 mi NE 11.5 mph - 0.01 in   Overcast
2:15 PM 48.7 °F - 46.2 °F 91% 30.00 in 10.0 mi NE 12.7 mph 18.4 mph N/A Thunderstorm Overcast
2:35 PM 49.1 °F - 46.4 °F 90% 29.98 in 10.0 mi ENE 16.1 mph 19.6 mph N/A Thunderstorm Overcast
2:55 PM 49.6 °F - 46.4 °F 89% 29.98 in 10.0 mi East 13.8 mph 23.0 mph N/A   Overcast
3:15 PM 50.7 °F - 46.6 °F 86% 29.98 in 10.0 mi ENE 10.4 mph 16.1 mph N/A Thunderstorm Overcast
3:35 PM 51.8 °F - 46.9 °F 83% 29.93 in 10.0 mi East 11.5 mph 16.1 mph N/A Thunderstorm Overcast
3:55 PM 51.8 °F - 48.2 °F 88% 29.91 in 10.0 mi East 9.2 mph 17.3 mph N/A Thunderstorm Mostly Cloudy
4:15 PM 52.9 °F - 47.7 °F 82% 29.94 in 10.0 mi NE 8.1 mph - N/A Thunderstorm Thunderstorm
4:35 PM 52.9 °F - 48.2 °F 84% 29.93 in 10.0 mi ENE 5.8 mph - N/A Thunderstorm Thunderstorm
4:55 PM 53.6 °F - 48.2 °F 82% 29.93 in 10.0 mi East 5.8 mph - N/A Thunderstorm Overcast
5:15 PM 54.0 °F - 48.7 °F 82% 29.92 in 10.0 mi East 5.8 mph - N/A Thunderstorm Overcast
5:35 PM 53.8 °F - 48.9 °F 84% 29.91 in 10.0 mi East 5.8 mph - N/A   Overcast
5:55 PM 54.7 °F - 49.1 °F 81% 29.91 in 10.0 mi East 6.9 mph - N/A   Overcast
6:15 PM 55.4 °F - 49.1 °F 79% 29.90 in 10.0 mi East 8.1 mph - N/A   Overcast
6:35 PM 55.4 °F - 49.3 °F 80% 29.91 in 10.0 mi East 5.8 mph - N/A   Overcast
6:55 PM 54.9 °F - 49.3 °F 81% 29.91 in 10.0 mi ESE 5.8 mph - N/A   Overcast
7:15 PM 55.0 °F - 49.3 °F 81% 29.91 in 10.0 mi ESE 8.1 mph - N/A Thunderstorm Overcast
7:35 PM 55.2 °F - 49.1 °F 80% 29.90 in 10.0 mi ESE 10.4 mph - N/A   Overcast
7:55 PM 55.0 °F - 49.3 °F 81% 29.91 in 10.0 mi ESE 9.2 mph - N/A   Overcast
8:15 PM 55.2 °F - 49.3 °F 80% 29.90 in 10.0 mi ESE 6.9 mph - N/A   Overcast
8:35 PM 55.4 °F - 49.3 °F 80% 29.90 in 10.0 mi ESE 5.8 mph - N/A   Overcast
8:55 PM 55.6 °F - 49.1 °F 79% 29.90 in 10.0 mi East 5.8 mph - N/A   Overcast
9:15 PM 55.9 °F - 49.1 °F 78% 29.90 in 10.0 mi ESE 5.8 mph - N/A   Overcast
9:35 PM 56.5 °F - 49.5 °F 77% 29.91 in 10.0 mi ESE 5.8 mph - N/A   Overcast
9:55 PM 56.5 °F - 50.0 °F 79% 29.91 in 10.0 mi SE 9.2 mph - N/A   Overcast
10:15 PM 56.7 °F - 50.2 °F 79% 29.91 in 10.0 mi ESE 6.9 mph - N/A Thunderstorm Overcast
10:35 PM 57.2 °F - 50.0 °F 77% 29.90 in 10.0 mi ESE 5.8 mph - N/A Thunderstorm Overcast
10:55 PM 56.7 °F - 51.1 °F 82% 29.90 in 10.0 mi East 5.8 mph - N/A   Overcast
11:15 PM 56.5 °F - 51.1 °F 82% 29.90 in 10.0 mi East 8.1 mph - N/A Thunderstorm Thunderstorm
11:35 PM 56.5 °F - 51.8 °F 84% 29.89 in 10.0 mi East 5.8 mph - N/A   Overcast
11:55 PM 56.5 °F - 52.2 °F 85% 29.88 in 10.0 mi East 5.8 mph - N/A Thunderstorm Overcast